Lid_Strength_Index
-1 -0 -0 2 8 8 12 12 8 8 7 5 4 5 6 6 8 12 2 1 0 0 -0 -1 -1 -1 -1 -1 -1 -1 -1 -1 -1 -1 -1 -1 -1 -1 -1 -1 -1 -1 -1 -1 -1 -1 -1 -1 -1
2 1 1 4 9 11 10 8 10 8 5 4 4 5 6 7 4 3 3 0 -0 0 -1 -1 -1 -1 -1 -1 -1 -1 -1 -1 -1 -1 -1 -1 -1 -1 -1 -1 -1 -1 -1 -1 -1 -1 -1 -1 -1
-0 0 4 6 8 10 11 8 9 6 4 5 5 4 5 6 3 3 1 0 -0 -0 -1 -1 -1 -1 -1 -1 -1 -1 -1 -1 -1 -1 -1 -1 -1 -1 -1 -1 -1 -1 -1 -1 -1 -1 -1 -1 -1
1 2 3 7 8 7 7 6 5 5 5 4 4 6 4 2 3 1 0 0 0 0 -0 -1 -1 -1 -1 -1 -1 -1 -1 -1 -1 -1 -1 -1 -1 -1 -1 -1 -1 -1 -1 -1 -1 -1 -1 -1 -1
2 3 7 8 7 6 5 4 4 6 6 5 5 7 6 2 1 1 1 0 1 0 -0 -1 -1 -1 -1 -1 -1 -1 -1 -1 -1 -1 -1 -1 -1 -1 -1 -1 -1 -1 -1 -1 -1 -1 -1 -1 -1
4 4 8 9 8 7 5 4 4 6 6 6 7 7 6 2 2 1 0 0 0 0 -0 -1 -1 -1 -1 -1 -1 -1 -1 -1 -1 -1 -1 -1 -1 -1 -1 -1 -1 -1 -1 -1 -1 -1 -1 -2 -2
5 6 8 7 7 7 5 4 5 6 7 7 5 8 6 4 1 1 0 0 0 -0 -0 -0 -1 -1 -1 -1 -1 -1 -1 -1 -1 -1 -1 -1 -1 -1 -1 -1 -1 -1 -1 -1 -1 -1 -1 -1 -1
4 5 7 7 8 7 5 4 4 4 6 4 4 8 8 4 2 1 1 0 0 0 -0 -0 -1 -1 -1 -1 -1 -1 -1 -1 -1 -1 -1 -1 -1 -1 -1 -1 -1 -1 -1 -1 -1 -1 -1 -1 -1
3 6 8 7 7 6 5 5 4 3 5 6 5 5 4 2 2 2 2 2 1 1 0 -0 -0 -0 -1 -0 -1 -1 -1 -1 -1 -1 -1 -1 -1 -1 -1 -1 -2 -1 -1 -1 -1 -1 -1 -1 -1
5 7 7 5 5 5 5 5 4 5 5 6 5 4 3 2 3 3 4 3 2 2 1 0 0 0 -0 -0 -1 -1 -1 -1 -1 -1 -1 -1 -1 -1 -1 -1 -2 -1 -1 -1 -1 -1 -1 -1 -0
5 7 5 5 4 4 5 5 4 5 7 5 6 4 3 4 3 4 3 3 2 2 1 2 0 0 -0 0 -1 -0 -0 -0 -1 -1 -1 -1 -1 -1 -1 -0 -1 -1 -1 -1 -1 -1 -1 -1 -1
6 5 4 4 4 4 5 4 4 4 5 3 3 3 3 4 4 3 3 3 2 2 2 1 0 -0 -1 -1 -0 -1 -0 -1 -0 -1 -1 -1 -0 -0 -0 -0 -1 -0 -0 -0 -0 -0 -0 -0 0
5 5 4 4 4 4 4 5 5 5 3 2 3 3 3 3 3 3 2 2 2 2 1 1 0 0 -0 -0 -0 -0 -1 -0 -0 -1 -1 -1 -0 0 -0 -0 -1 -1 -1 -0 -0 -0 -0 1 1
4 5 4 4 4 4 5 5 4 4 3 3 4 4 4 3 3 3 2 2 2 2 2 1 1 -0 -0 -0 0 -0 -1 -0 -0 -1 -1 -1 -1 -0 -0 0 -0 -0 -1 -1 -0 -0 0 0 0
4 6 5 5 4 5 4 6 6 4 3 5 5 4 4 4 3 4 3 3 2 1 1 2 0 -0 -1 -0 3 4 3 4 -0 0 -1 -2 -1 -1 -0 -0 0 -0 -1 -1 -0 -0 -0 0 0
6 6 8 5 5 5 5 8 5 3 4 5 5 5 4 4 3 3 4 4 3 2 1 1 0 1 4 5 2 -0 1 2 1 -0 -0 -1 -1 -1 -0 0 0 -0 -1 -0 0 0 1 1 1
7 9 8 7 5 5 6 7 5 4 4 6 5 5 4 4 3 2 3 3 4 4 3 2 1 0 0 2 0 -0 1 0 -0 -1 -0 -0 -1 -1 -0 -0 -0 -1 -0 0 0 0 1 1 1
9 9 8 8 6 6 7 7 6 5 5 6 6 5 5 4 4 2 3 4 4 3 3 2 2 2 0 -0 -0 -0 2 -0 -0 0 -0 -1 -1 -1 -0 -0 -0 -0 0 0 0 1 0 1 1
7 8 8 7 5 6 7 8 8 6 5 6 6 5 5 4 3 3 4 5 5 4 4 3 3 3 3 3 2 1 1 1 1 -0 0 1 -0 -1 -0 -0 -0 -0 0 1 0 1 1 1 1
7 8 8 7 6 6 7 9 8 7 7 6 5 5 5 4 3 5 5 4 5 4 4 4 4 3 3 2 2 0 0 -0 -0 -0 -0 -1 -1 -1 -0 -0 0 0 1 1 1 1 2 2 1
7 8 8 8 7 6 7 10 9 7 6 5 5 4 4 4 4 4 5 5 5 4 4 3 2 3 2 2 2 2 1 1 2 1 0 -0 -1 -1 -1 -0 -0 0 0 1 1 1 1 3 1
8 6 7 7 8 10 7 12 10 9 8 6 6 5 4 4 4 4 4 4 4 4 3 2 2 3 3 2 3 2 3 3 2 2 1 1 0 -1 0 -1 -0 0 0 1 1 0 1 1 3
8 6 7 7 8 9 9 10 12 9 9 8 6 5 4 4 4 4 4 3 3 3 3 2 1 2 2 2 2 3 4 4 3 3 3 3 2 2 1 1 1 1 1 1 1 2 1 1 2
5 6 7 7 8 12 9 10 14 11 9 8 6 5 4 4 4 4 3 3 3 3 4 3 3 3 3 3 3 3 4 4 4 5 5 5 4 3 2 3 1 2 2 1 0 0 1 2 1
6 8 12 12 13 13 9 10 12 8 8 7 6 5 5 4 5 5 5 5 5 5 4 4 4 4 3 4 4 4 4 5 6 5 6 5 5 4 4 4 3 3 3 2 1 0 1 1 1
8 8 11 15 14 12 9 13 12 7 6 5 5 5 5 5 5 5 5 5 5 5 4 4 4 4 3 4 4 4 4 6 5 6 5 6 6 6 5 4 4 4 3 3 2 2 1 1 1
8 9 7 10 9 12 10 11 9 7 7 6 6 5 5 5 5 6 5 5 5 5 4 4 4 4 4 4 3 4 5 5 6 5 5 5 5 5 5 4 4 4 3 2 2 2 2 2 1
7 6 10 9 14 15 12 13 13 10 9 7 7 6 5 4 4 3 3 3 3 3 3 2 2 3 4 4 5 6 6 5 5 4 5 5 4 4 4 4 3 3 3 2 2 2 2 2 1
8 9 8 8 10 14 14 12 7 8 7 7 6 5 5 4 3 3 3 3 3 3 4 4 4 5 5 6 6 5 5 5 5 5 5 5 4 3 4 3 3 3 3 3 2 1 1 1 1
6 8 8 11 12 10 12 13 6 6 6 5 5 5 4 3 3 3 3 4 4 5 5 5 5 6 5 5 4 5 5 4 4 5 4 3 4 3 3 3 3 2 3 3 2 2 2 2 2